Location: Banff
(51.1667°N, 115.5667°W)
Time: 10:12:47
(UTC+00:00)

Explorer 7 - Pass Details

Date: 30 November 2020
Orbit: 484 x 678 km, 50.3° (Epoch: 19 January)

Event Time Altitude Azimuth Distance (km) Brightness Sun altitude
Exits shadow 12:48:26 71° 171° (S) 589 6.9 -23.4°
Drops below altitude 10° 12:52:18 10° 107° (ESE) 1,780 10.5 -22.8°
Sets 12:54:27 0° 106° (ESE) 2,639 11.7 -22.4°
